一网星座-0217星 (ONEWEB-0217 )

导读 | 星芒AI

ONEWE-0217 是 OneWeb 卫星通信星座计划中的一颗低轨通信卫星,旨在为全球提供高速互联网服务。该卫星由空中客车防务与航天公司制造,采用标准化设计以提高部署效率。它运行在约 1200 公里的太阳同步轨道上,与其他 OneWeb 卫星协同工作,支持偏远和未覆盖地区的宽带连接。该星座计划由数百颗卫星组成,致力于实现全球无缝网络覆盖。ONEWE-0217 的发射和运行是 OneWeb 恢复和发展其全球通信能力的重要一步。

基本信息
目录编号:
48245
目录名称:
ONEWEB-0217
国际标识:
2021-031AM
轨道中心:
EARTH
卫星名称:
一网星座-0217星
卫星全名:
一网星座-0217星 (ONEWEB-0217 )
卫星状态:
在轨 (已飞行1637 天)
发射日期:
2021-04-25 UTC
国别 :
英国 (GB)
星等 :
--
轨道信息
数据来源 国际轨道数据
星历时间: 2025-10-18T11:51:42+0800
10小时前
查看轨道信息
半长轴: 7583.927km
偏心率: 0.0002112
轨道倾角: 87.905°
近地点辐角 100.964°
升交点赤经 337.894°
平近点角 259.173°
近地点: 1204.19km
远地点: 1207.394km
周期: 109.547分钟
每日圈数: 13.145029
详细信息
平衡模式:
三轴稳定
覆盖范围:
全球
运营商:
一网卫星公司
运营商所在国:
英国
制造商(研发单位):
一网卫星公司
制造商所在国:
英国
使用方式:
暂无
卫星简介
OneWeb卫星网络由648颗重约125公斤的微型卫星组成,运行在1200公里的轨道上。 每颗卫星都能够提供至少每秒8千兆位的吞吐量,以使用其高吞吐量的Ku频段有效载荷为家庭和移动平台提供互联网接入。该卫星仍在工作。
2D轨道图
3D轨道图
轨道高度分析图
轨道倾角分析图
轨道综合分析图
查看轨道综合分析图